Location: Petrozavodsk
(61.7857°N, 34.3593°E)
Time: 18:08:58
(UTC+03:00)

Terra - Pass Details

Date: 24 October 2019
Orbit: 701 x 703 km, 98.2° (Epoch: 14 November)

Event Time Altitude Azimuth Distance (km) Brightness Sun altitude
Exits shadow 21:06:59 28° 15° (NNE) 1,310 3.3 -28.6°
Drops below altitude 10° 21:09:41 10° 350° (N) 2,186 4.8 -28.9°
Sets 21:12:04 0° 343° (NNW) 3,108 5.8 -29.1°
